This is the latest recevied weather packets stored in our database for station/object KC1TWD. If no packets are shown the sender has not sent any weather packets the latest 10 day(s).
| Time | Temp. | Humidity | Pressure | Rain* | Wind** | Luminosity | Snow |
|---|---|---|---|---|---|---|---|
| 1777146989 | 13.33° C | 35% | 1016 hPa | 0 mm | - | - | - |
| 1777146686 | 12.78° C | 39% | 1016.1 hPa | 0 mm | - | - | - |
| 1777146380 | 13.33° C | 36% | 1016.1 hPa | 0 mm | - | - | - |
| 1777146078 | 13.33° C | 35% | 1015.9 hPa | 0 mm | - | - | - |
| 1777145774 | 13.33° C | 35% | 1016.2 hPa | 0 mm | - | - | - |
| 1777145469 | 13.33° C | 35% | 1015.9 hPa | 0 mm | - | - | - |
| 1777145164 | 13.33° C | 35% | 1016.1 hPa | 0 mm | - | - | - |
| 1777144860 | 13.33° C | 35% | 1016 hPa | 0 mm | - | - | - |
| 1777144558 | 13.33° C | 34% | 1016.2 hPa | 0 mm | - | - | - |
| 1777144256 | 14.44° C | 34% | 1016.3 hPa | 0 mm | - | - | - |
| 1777143952 | 13.89° C | 34% | 1016.2 hPa | 0 mm | - | - | - |
| 1777143648 | 13.89° C | 34% | 1016.3 hPa | 0 mm | - | - | - |
| 1777143344 | 14.44° C | 34% | 1016.2 hPa | 0 mm | - | - | - |
| 1777143040 | 13.89° C | 34% | 1016.2 hPa | 0 mm | - | - | - |
| 1777142736 | 12.78° C | 36% | 1016.5 hPa | 0 mm | - | - | - |
| 1777142433 | 12.78° C | 36% | 1016.4 hPa | 0 mm | - | - | - |
| 1777142133 | 13.89° C | 35% | 1016.5 hPa | 0 mm | - | - | - |
| 1777141829 | 13.33° C | 35% | 1016.7 hPa | 0 mm | - | - | - |
| 1777141526 | 13.33° C | 35% | 1016.7 hPa | 0 mm | - | - | - |
| 1777141225 | 13.89° C | 38% | 1016.7 hPa | 0 mm | - | - | - |
| 1777140921 | 13.33° C | 38% | 1016.9 hPa | 0 mm | - | - | - |
| 1777140618 | 12.78° C | 37% | 1017 hPa | 0 mm | - | - | - |
* Rain latest hour (hover to see other rain measurements)
** Current wind speed in m/s (hover to see current wind gust speed)